CDT,Max TemperatureF,Mean TemperatureF,Min TemperatureF,Max Dew PointF,MeanDew PointF,Min DewpointF,Max Humidity, Mean Humidity, Min Humidity, Max Sea Level PressureIn, Mean Sea Level PressureIn, Min Sea Level PressureIn, Max VisibilityMiles, Mean VisibilityMiles, Min VisibilityMiles, Max Wind SpeedMPH, Mean Wind SpeedMPH, Max Gust SpeedMPH,PrecipitationIn, CloudCover, Events, WindDirDegrees
2013-10-1,78,68,57,63,60,55,100,87,58,30.02,29.98,29.93,10,7,1,18,10,26,0.00,5,,209
2013-10-2,82,71,59,65,59,52,100,78,44,30.10,30.04,30.00,10,7,2,10,3,14,0.00,3,,289
2013-10-3,76,67,58,68,65,57,100,97,76,30.01,29.98,29.88,10,4,0,23,6,31,0.60,7,Fog-Rain,181
2013-10-4,82,72,62,69,66,61,97,86,62,30.02,29.98,29.94,10,10,8,12,5,15,0.00,4,,197
2013-10-5,79,72,64,70,66,64,100,94,69,29.98,29.90,29.79,10,7,2,21,7,29,0.59,5,Rain,180
2013-10-6,65,54,43,65,51,40,100,89,51,29.81,29.78,29.70,10,8,2,23,9,26,0.25,7,Rain,236
2013-10-7,64,54,43,46,43,39,93,78,41,30.13,29.93,29.79,10,10,10,18,8,24,0.00,4,,243
2013-10-8,74,59,44,50,46,41,96,67,37,30.23,30.19,30.14,10,10,10,10,4,14,0.00,0,,174
2013-10-9,71,56,41,47,44,40,96,67,36,30.28,30.22,30.17,10,10,10,12,5,16,0.00,0,,103
2013-10-10,73,57,41,51,47,41,100,70,41,30.21,30.15,30.08,10,9,2,12,3,14,0.00,0,,100
2013-10-11,75,59,43,50,46,43,97,66,35,30.13,30.07,30.01,10,10,8,12,4,17,0.00,0,,133
2013-10-12,76,61,46,62,53,46,97,77,50,30.17,30.05,30.00,10,9,6,20,7,28,T,2,,222
2013-10-13,62,51,40,48,42,38,97,72,44,30.41,30.33,30.19,10,10,10,13,4,17,0.00,0,,320
2013-10-14,65,51,37,46,41,36,100,74,43,30.42,30.32,30.18,10,10,10,14,6,18,0.00,0,,83
2013-10-15,63,54,44,61,56,43,100,94,80,30.16,29.91,29.83,10,7,2,17,9,22,0.07,6,Rain,183
2013-10-16,52,47,41,45,44,41,97,84,74,29.97,29.92,29.89,10,10,10,17,9,23,0.00,6,,243
2013-10-17,51,45,38,46,44,39,100,90,68,29.95,29.89,29.84,10,9,6,16,8,22,0.06,6,Rain,247
2013-10-18,54,46,37,44,40,36,100,85,69,29.99,29.94,29.89,10,9,6,20,8,23,0.00,4,,244
2013-10-19,54,47,40,41,37,29,100,74,40,29.95,29.87,29.82,10,10,10,25,10,33,T,6,Rain,242
2013-10-20,63,49,35,42,39,34,97,68,45,29.92,29.86,29.79,10,10,10,18,9,28,0.00,4,,206
2013-10-21,53,42,30,47,37,25,96,74,51,30.00,29.92,29.84,10,10,10,18,10,23,0.02,4,Rain,253
2013-10-22,43,34,25,36,31,23,100,88,47,30.03,29.97,29.93,10,9,5,15,4,21,0.09,5,Rain,240
2013-10-23,45,38,31,36,30,23,100,77,47,30.03,29.96,29.87,10,9,5,17,9,22,0.00,6,,278
2013-10-24,44,39,33,30,26,20,85,66,43,30.30,30.16,30.03,10,10,10,18,10,25,0.00,7,,282
2013-10-25,49,38,27,28,26,24,85,63,41,30.43,30.32,30.14,10,10,10,20,10,25,0.00,1,,247
2013-10-26,55,45,35,35,30,26,73,59,45,30.11,29.98,29.88,10,10,10,24,12,33,0.00,4,,259
2013-10-27,53,41,28,31,28,26,92,64,37,30.11,30.06,30.01,10,10,10,6,6,7,0.00,0,,236
2013-10-28,59,43,27,42,34,27,92,74,39,30.36,30.24,30.11,10,10,10,12,3,15,0.00,0,,18
2013-10-29,54,43,31,43,37,31,100,82,55,30.39,30.29,30.18,10,10,8,10,6,15,T,3,Rain,96
2013-10-30,65,52,38,62,51,37,100,95,83,30.16,30.03,29.82,9,4,1,21,8,29,1.55,7,Rain,111
2013-10-31,63,54,45,63,57,46,100,97,93,29.80,29.52,29.24,10,7,2,26,15,36,0.99,8,Rain,216